Wind_Speed
37 35 38 36 36 37 37 39 42 41 41 43 43 47 47 50 52 57 60 61 62 63 64 65 69 72 76 82 87 88 92 94 94 96 98 101 102 105 105 106 109 110 110 108
37 37 40 39 39 39 39 41 43 41 42 43 45 49 48 51 56 58 61 63 65 67 69 71 75 78 81 86 89 91 96 101 101 102 103 105 103 102 104 105 106 105 104 104
37 39 39 38 37 40 37 40 40 41 42 42 42 47 46 50 51 54 59 62 62 67 71 72 73 76 79 84 88 93 99 104 107 110 112 114 110 106 105 107 107 104 102 100
35 38 38 36 39 39 37 37 35 39 41 41 39 46 47 51 55 59 64 67 72 76 79 79 81 83 86 90 94 98 102 106 107 110 114 118 119 117 115 114 113 110 106 103
32 36 34 35 34 33 31 34 39 37 38 41 44 48 53 56 59 62 66 66 67 70 73 74 73 74 77 84 93 101 105 106 109 112 114 116 119 118 117 118 117 115 113 111
29 30 30 28 27 30 31 32 35 36 40 45 48 50 52 58 63 65 58 62 68 73 73 73 73 76 79 80 83 86 92 96 103 111 113 118 119 115 113 112 114 114 110 110
21 22 22 25 25 29 30 33 37 40 40 47 54 54 57 58 57 55 60 67 74 79 82 80 83 83 82 81 80 78 79 79 81 86 96 103 111 117 120 117 114 106 105 105
18 22 24 27 29 31 33 36 41 42 43 46 55 57 57 62 59 54 60 66 72 77 83 88 90 88 82 77 75 76 77 74 71 68 74 82 89 101 106 109 114 114 109 106
21 25 25 27 33 36 37 43 42 44 48 51 53 59 65 69 59 57 61 66 70 76 82 88 89 86 76 69 67 66 68 69 67 62 63 62 69 75 79 89 102 106 104 103
24 28 26 32 36 39 40 43 45 48 51 57 60 66 72 65 58 60 65 69 76 82 87 90 86 83 75 66 59 55 55 56 58 58 56 57 57 62 69 84 93 96 96 94
21 28 36 38 37 39 40 44 48 53 59 64 65 65 64 58 60 64 69 71 77 86 87 83 79 76 72 64 58 53 48 45 45 48 50 52 53 54 56 65 72 79 80 79
32 29 33 38 39 41 47 52 56 60 64 67 63 61 61 59 63 67 69 74 80 82 77 77 70 68 63 58 54 54 50 49 49 44 45 46 48 47 50 54 57 58 59 63
31 31 34 40 42 49 54 58 63 62 65 64 61 61 59 63 68 71 77 79 81 76 71 68 63 60 55 50 51 49 47 47 47 44 41 39 40 42 42 43 43 47 51 50
29 34 38 43 47 52 57 61 62 64 62 57 62 65 67 71 73 78 82 81 74 69 64 61 58 55 47 43 45 45 47 46 43 43 39 35 34 34 34 34 36 39 41 40
35 40 47 47 52 55 58 57 59 60 61 62 63 70 73 76 81 83 84 75 69 63 62 61 53 49 40 39 41 42 44 45 40 37 34 31 30 25 26 28 28 29 28 30
41 45 52 55 55 57 62 59 60 63 65 67 71 75 79 82 85 83 76 67 62 60 59 56 46 39 32 33 36 41 43 41 35 30 26 25 23 19 18 17 18 18 19 23
44 51 51 57 60 66 67 65 62 64 67 71 76 81 83 87 88 82 71 63 61 56 51 45 34 28 26 30 38 40 37 32 25 23 20 16 14 10 8 6 7 7 11 15
52 53 53 56 61 62 61 61 63 67 71 77 80 84 87 84 76 71 59 57 53 48 41 31 26 24 27 32 37 35 29 23 22 18 14 11 9 4 1 5 7 10 13 17
59 57 58 59 55 57 62 65 71 77 80 84 87 85 80 72 67 68 58 52 44 39 30 22 20 23 26 28 33 27 22 21 18 14 9 8 5 4 1 2 4 7 10 13
59 61 61 63 59 64 67 71 77 79 81 82 76 72 67 60 54 57 55 48 38 27 19 17 19 22 23 25 27 19 18 18 16 8 7 6 9 9 8 7 5 4 4 5
59 61 62 64 68 71 70 73 79 82 79 72 69 62 55 50 49 47 45 36 26 18 18 15 17 21 24 24 19 16 15 17 11 9 8 12 12 11 10 9 7 4 3 2
64 64 65 69 76 76 76 77 80 75 65 62 60 53 49 49 45 36 30 23 14 14 11 14 18 21 23 19 12 12 13 10 8 12 11 9 10 10 11 10 9 5 5 7
70 71 73 74 79 81 81 80 77 65 57 56 53 47 45 42 33 28 22 12 11 9 14 17 19 20 20 11 6 10 14 12 11 10 10 9 10 10 8 8 8 7 4 4
76 76 77 81 83 83 85 77 69 59 57 54 52 47 39 32 27 18 9 6 7 10 16 17 18 18 9 9 18 19 13 11 10 8 8 9 11 12 14 15 13 12 11 12
79 79 81 83 85 84 78 66 61 59 55 53 48 39 34 26 12 2 0 2 7 14 19 17 16 6 18 20 19 15 10 8 7 10 12 14 16 17 18 18 18 17 17 15
82 83 84 83 79 71 64 60 58 54 49 48 39 33 23 8 1 3 4 4 9 17 17 13 10 27 22 19 17 13 12 11 12 14 17 20 22 23 25 26 26 25 24 22
Wind_Direction
280 278 275 277 276 277 278 277 274 273 271 269 265 262 264 266 269 268 270 271 272 270 266 262 259 260 260 263 265 267 266 266 263 261 259 259 260 261 261 261 261 261 260 259
275 273 274 276 278 278 275 275 276 278 276 273 274 272 273 271 273 277 278 276 276 274 271 268 265 263 261 261 260 261 261 262 264 264 264 262 257 258 259 260 260 261 260 259
271 269 270 271 273 272 277 278 280 281 280 278 280 279 280 281 281 282 283 283 283 283 281 278 275 272 268 266 264 263 262 262 261 260 260 261 262 260 259 260 259 258 259 260
272 270 271 274 273 278 278 281 280 280 285 288 289 289 290 288 287 288 288 289 287 285 282 280 278 276 275 274 271 267 265 262 261 261 261 261 260 260 260 259 260 260 260 259
268 269 272 272 277 277 277 275 278 286 289 287 287 285 288 289 289 291 293 294 291 288 286 284 280 277 275 270 267 267 268 268 266 266 264 263 259 257 258 258 259 259 260 260
268 272 273 276 272 272 277 282 286 288 290 290 291 291 293 296 297 298 299 300 299 299 299 297 295 289 280 279 276 272 268 265 264 263 261 261 265 264 260 257 256 256 257 259
271 271 272 271 273 276 282 285 287 289 291 295 298 299 301 299 303 304 305 304 304 305 307 309 307 302 297 296 293 289 282 276 266 263 261 260 259 261 262 262 260 255 252 251
270 271 274 281 282 283 286 283 285 288 290 296 298 302 301 301 304 301 301 299 301 306 309 310 310 306 302 301 297 294 290 285 278 272 265 259 255 256 257 259 260 260 257 252
277 276 278 280 285 292 295 293 293 294 294 298 299 301 307 303 302 300 297 297 302 306 307 308 307 304 304 302 302 299 294 292 290 284 275 266 261 258 256 252 253 255 255 255
284 283 278 277 284 291 292 294 298 299 302 302 301 299 303 303 303 301 303 306 308 308 308 308 307 307 306 305 304 300 298 292 291 289 285 278 266 262 253 249 252 252 253 251
283 284 291 292 295 298 299 299 300 301 303 306 302 303 302 304 304 305 306 307 308 308 309 306 307 308 307 308 307 308 306 298 294 286 283 278 274 268 261 256 258 259 258 254
298 299 294 297 299 300 301 299 300 305 310 309 311 310 309 311 305 304 303 306 309 309 308 305 307 305 305 305 309 311 315 312 305 294 284 281 280 273 265 261 260 255 254 254
300 297 294 293 295 300 299 299 305 310 307 305 307 306 308 304 305 308 308 309 310 310 308 306 308 304 305 306 308 312 311 307 305 300 293 290 282 279 274 270 263 258 255 253
295 293 290 289 297 308 307 306 305 304 305 307 306 308 310 309 310 310 311 312 311 311 306 308 310 306 305 304 307 310 312 310 306 301 298 294 288 282 277 270 263 258 254 246
298 305 305 297 307 311 309 310 310 310 311 311 309 311 309 310 310 312 313 314 312 309 307 311 310 305 303 303 311 318 319 315 309 304 304 301 299 290 280 275 267 259 254 243
300 304 308 306 309 310 311 312 308 308 310 310 310 309 310 310 311 312 313 312 310 308 309 308 309 304 304 309 322 324 321 316 316 313 315 312 311 305 293 286 279 268 253 237
299 304 307 306 309 307 309 310 308 308 311 311 310 310 310 312 313 314 313 312 312 313 304 306 304 303 312 323 329 329 321 327 323 326 324 322 318 311 296 282 257 240 223 219
301 303 300 302 304 304 307 309 309 310 312 311 311 311 310 309 308 307 312 314 318 310 308 306 297 313 326 325 333 326 325 340 336 328 333 328 323 310 265 192 181 186 195 207
303 304 303 302 303 307 310 312 313 315 316 314 312 310 310 312 313 310 313 316 314 312 308 296 303 318 316 327 331 326 329 344 330 321 330 330 348 7 9 133 169 190 205 218
303 305 305 307 310 312 313 313 312 312 313 309 308 309 309 307 308 306 312 314 310 309 294 303 314 331 328 333 325 327 335 328 326 320 338 36 51 56 71 77 99 132 186 219
299 304 305 311 311 308 309 308 310 314 311 309 311 311 309 308 307 309 308 305 302 292 290 305 327 338 335 332 329 342 351 346 346 9 54 77 71 64 55 55 48 47 62 59
302 304 307 308 305 305 307 310 313 312 310 312 314 313 311 310 312 312 307 295 287 286 311 330 338 343 340 334 337 7 10 0 61 89 82 68 58 57 44 36 31 59 45 18
301 304 305 302 303 308 310 314 314 310 310 312 314 310 311 309 312 305 301 293 284 314 339 339 352 347 341 359 26 51 90 92 85 72 53 39 29 12 4 352 331 328 289 279
297 302 305 306 307 311 312 314 311 310 310 314 315 314 312 314 306 299 294 293 338 341 340 347 351 350 12 65 97 99 94 81 72 50 18 352 336 325 316 315 310 307 301 304
297 301 303 305 306 309 309 311 310 309 309 313 317 317 314 309 294 303 71 1 348 329 350 349 356 35 105 101 93 86 84 59 21 355 340 331 327 325 322 316 308 299 291 287
300 300 302 304 306 307 308 309 309 309 310 314 315 316 313 291 122 109 108 12 334 354 346 355 95 119 111 102 95 80 58 24 352 338 332 326 319 313 311 310 305 300 293 285
Height
10804 10802 10798 10800 10799 10798 10797 10795 10792 10794 10793 10791 10791 10786 10787 10783 10779 10772 10770 10771 10772 10771 10770 10770 10766 10763 10757 10749 10740 10738 10729 10723 10722 10719 10715 10711 10711 10710 10712 10715 10717 10724 10731 10741
10794 10792 10789 10790 10790 10789 10789 10785 10782 10783 10781 10779 10776 10771 10776 10771 10765 10763 10756 10753 10752 10749 10745 10747 10742 10741 10737 10728 10722 10718 10710 10698 10698 10694 10688 10680 10684 10686 10687 10689 10692 10697 10705 10711
10786 10783 10782 10782 10781 10777 10780 10775 10773 10770 10766 10768 10765 10760 10761 10755 10754 10749 10741 10737 10736 10729 10721 10719 10720 10716 10712 10703 10698 10691 10683 10676 10671 10665 10658 10652 10658 10665 10666 10662 10664 10670 10678 10684
10776 10771 10772 10773 10770 10769 10769 10765 10762 10759 10758 10754 10755 10749 10748 10745 10739 10733 10726 10720 10712 10706 10700 10699 10696 10688 10683 10676 10667 10657 10649 10641 10641 10637 10630 10624 10627 10634 10636 10638 10638 10644 10653 10658
10765 10762 10763 10763 10763 10759 10759 10757 10753 10751 10749 10745 10744 10741 10735 10732 10727 10720 10712 10699 10689 10682 10673 10670 10668 10665 10659 10646 10634 10625 10620 10618 10611 10603 10597 10591 10592 10599 10604 10606 10610 10618 10623 10628
10755 10754 10754 10755 10754 10752 10751 10748 10745 10744 10739 10734 10730 10728 10727 10717 10710 10703 10694 10679 10667 10656 10650 10646 10641 10634 10625 10616 10606 10596 10589 10584 10577 10567 10567 10563 10560 10563 10567 10575 10580 10584 10595 10598
10749 10747 10747 10746 10747 10745 10745 10743 10739 10735 10731 10723 10714 10715 10709 10705 10701 10691 10679 10663 10647 10633 10623 10616 10607 10598 10590 10580 10570 10560 10551 10546 10543 10542 10536 10538 10534 10531 10531 10538 10539 10552 10564 10571
10743 10742 10741 10739 10738 10738 10738 10736 10731 10728 10723 10719 10707 10702 10698 10689 10687 10682 10671 10653 10640 10626 10610 10596 10585 10575 10569 10558 10544 10531 10518 10513 10511 10510 10505 10504 10506 10501 10504 10507 10508 10514 10526 10536
10738 10736 10736 10734 10730 10728 10727 10720 10719 10716 10711 10707 10698 10689 10682 10673 10671 10667 10654 10641 10630 10617 10601 10584 10568 10556 10548 10538 10526 10512 10498 10490 10483 10478 10473 10474 10476 10480 10485 10482 10475 10480 10491 10501
10731 10729 10731 10727 10725 10722 10718 10713 10709 10703 10699 10692 10686 10675 10667 10659 10656 10646 10634 10624 10609 10594 10582 10564 10548 10536 10527 10518 10510 10499 10486 10478 10468 10458 10453 10449 10450 10453 10454 10446 10447 10454 10463 10474
10727 10723 10718 10717 10716 10712 10706 10700 10696 10691 10684 10678 10670 10663 10649 10648 10640 10628 10618 10608 10596 10577 10561 10544 10533 10519 10508 10501 10492 10484 10475 10465 10457 10449 10441 10433 10430 10432 10430 10428 10431 10436 10442 10453
10717 10719 10712 10706 10703 10701 10695 10687 10681 10675 10667 10655 10649 10646 10635 10628 10620 10615 10606 10594 10580 10563 10546 10529 10519 10506 10495 10488 10479 10469 10459 10449 10441 10435 10427 10421 10416 10414 10409 10409 10411 10414 10420 10427
10710 10708 10705 10698 10697 10692 10683 10674 10667 10662 10654 10645 10639 10627 10625 10615 10605 10594 10583 10572 10557 10543 10528 10515 10504 10492 10483 10475 10466 10458 10449 10438 10427 10419 10412 10407 10402 10397 10395 10396 10398 10400 10402 10407
10704 10701 10697 10692 10688 10683 10672 10665 10657 10649 10642 10637 10623 10613 10603 10592 10583 10572 10562 10551 10537 10524 10510 10501 10491 10479 10472 10465 10457 10447 10436 10425 10415 10406 10399 10394 10389 10386 10383 10383 10385 10385 10388 10394
10692 10689 10685 10680 10676 10668 10659 10653 10641 10630 10621 10617 10611 10597 10586 10575 10563 10553 10541 10528 10517 10505 10494 10486 10476 10467 10462 10455 10446 10435 10425 10415 10405 10397 10390 10385 10380 10378 10375 10374 10375 10376 10380 10386
10680 10677 10673 10664 10661 10655 10646 10641 10630 10620 10610 10601 10592 10581 10570 10557 10545 10536 10525 10513 10501 10490 10482 10472 10464 10458 10452 10445 10436 10427 10417 10407 10399 10391 10385 10380 10376 10373 10370 10369 10368 10369 10373 10378
10673 10667 10662 10652 10646 10637 10632 10626 10616 10608 10599 10586 10574 10562 10550 10536 10522 10512 10506 10497 10486 10478 10468 10461 10455 10449 10444 10437 10429 10420 10411 10403 10394 10388 10383 10378 10375 10371 10368 10366 10366 10367 10370 10375
10661 10658 10654 10648 10640 10631 10621 10611 10605 10598 10588 10572 10560 10547 10535 10524 10512 10500 10495 10486 10475 10462 10457 10452 10448 10443 10437 10432 10424 10415 10407 10400 10393 10388 10383 10379 10375 10372 10370 10368 10367 10369 10372 10375
10646 10641 10637 10632 10627 10618 10608 10600 10587 10576 10568 10551 10538 10526 10515 10505 10494 10477 10478 10475 10467 10457 10451 10447 10443 10439 10434 10428 10420 10412 10405 10399 10395 10390 10385 10382 10378 10375 10373 10372 10372 10373 10374 10376
10633 10626 10618 10613 10609 10603 10594 10586 10575 10567 10558 10542 10529 10517 10506 10495 10488 10473 10467 10462 10457 10452 10447 10444 10441 10437 10430 10423 10415 10409 10403 10400 10397 10392 10388 10384 10381 10378 10376 10375 10374 10374 10375 10377
10622 10617 10607 10600 10594 10590 10585 10579 10565 10553 10541 10524 10513 10502 10492 10485 10477 10470 10461 10455 10450 10448 10446 10442 10438 10433 10426 10420 10412 10408 10403 10401 10399 10395 10391 10387 10384 10382 10381 10380 10379 10378 10378 10378
10605 10601 10594 10588 10578 10573 10568 10561 10551 10538 10525 10513 10501 10492 10483 10473 10466 10459 10452 10448 10446 10446 10444 10439 10435 10429 10423 10417 10412 10409 10406 10405 10402 10398 10395 10392 10389 10387 10385 10382 10380 10379 10378 10379
10586 10583 10580 10574 10563 10554 10545 10540 10529 10519 10512 10502 10492 10484 10476 10465 10458 10451 10447 10445 10445 10444 10441 10437 10432 10427 10421 10417 10414 10411 10410 10409 10406 10403 10400 10397 10394 10390 10387 10385 10383 10382 10381 10380
10563 10562 10559 10550 10539 10534 10524 10519 10507 10502 10495 10487 10479 10473 10464 10456 10450 10445 10444 10444 10444 10443 10440 10435 10430 10426 10422 10419 10416 10415 10415 10412 10410 10407 10404 10400 10396 10393 10389 10386 10383 10382 10380 10379
10552 10550 10542 10532 10524 10520 10505 10502 10494 10486 10479 10474 10467 10461 10454 10449 10445 10444 10445 10444 10444 10442 10437 10433 10429 10427 10425 10424 10421 10420 10420 10417 10415 10411 10406 10402 10397 10392 10388 10384 10381 10378 10375 10375
10540 10532 10527 10519 10510 10503 10496 10486 10478 10472 10468 10464 10459 10454 10449 10446 10445 10445 10445 10445 10443 10439 10435 10431 10429 10430 10430 10429 10427 10426 10424 10421 10417 10412 10408 10402 10396 10389 10384 10379 10374 10369 10365 10362